Location: Newark
(45.8667°N, 9.7333°E)
Time: 06:42:17
(UTC+00:00)

Vanguard 3 - Pass Details

Date: 02 February 2020
Orbit: 508 x 3263 km, 33.3° (Epoch: 27 February)

Event Time Altitude Azimuth Distance (km) Brightness Sun altitude
Rises 14:42:27 0° 234° (SW) 5,996 13.5 14.3°
Reaches altitude 10° 14:46:09 10° 229° (SW) 5,291 14.7 13.8°
Maximum altitude 15:02:05 49° 161° (SSE) 3,799 10.9 11.8°
Drops below altitude 10° 15:20:20 10° 95° (E) 6,003 11.2 9.3°
Sets 15:24:50 0° 91° (E) 6,826 11.4 8.6°
